Location: *
(13.2257°S, 48.7193°W)
Time: 00:36:40
(UTC+00:00)

BlueWalker 3 - Visible Passes

Search period start: 17 April 2026 00:00
Search period end: 27 April 2026 00:00
Orbit: 449 x 457 km, 53.2° (Epoch: 16 April)

Date Brightness Start Highest point End Pass type
(mag) Time Alt. Az. Time Alt. Az. Time Alt. Az.
18 Apr 3.3 22:39:35 10° NNW 22:41:29 28° NNW 22:41:29 28° NNW visible
19 Apr 4.1 08:38:57 10° S 08:41:47 22° SE 08:44:36 10° ENE visible
19 Apr 2.4 22:03:17 10° NNW 22:06:37 36° ENE 22:07:25 31° E visible
20 Apr 4.5 08:03:06 10° SSE 08:05:12 15° SE 08:07:17 10° E visible
20 Apr 3.1 21:27:13 10° N 21:30:06 23° ENE 21:33:01 10° ESE visible
20 Apr 4.6 23:05:19 10° W 23:07:02 14° WSW 23:07:02 14° WSW visible
21 Apr 4.0 22:27:58 10° WNW 22:30:48 22° SW 22:32:52 14° S visible
22 Apr 1.8 08:27:19 21° SW 08:29:27 57° NW 08:32:56 10° NNE visible
22 Apr 3.4 21:50:58 10° WNW 21:54:13 33° SW 21:57:31 10° SSE visible
23 Apr 1.8 07:53:14 73° NE 07:53:14 73° NE 07:56:28 10° NE visible
24 Apr 4.6 07:19:07 15° NE 07:19:07 15° NE 07:19:49 10° NE visible
